Kaneohe MCBH, HI

10:48 AM HST on May 25, 2017 (GMT -1000)
Kaneohe Bay Marine Corps Air Facility

Weather History for PHNG - January, 2014

Change the Weather History Date:

Tuesday, January 7, 2014

  Actual Average Record
Temperature  
Mean Temperature 74 °F -  
Max Temperature 78 °F 76 °F 84 °F (2016)
Min Temperature 70 °F 66 °F 60 °F (2011)
Cooling Degree Days 9    
Growing Degree Days 24 (Base 50)    
Moisture  
Dew Point 54 °F    
Average Humidity 51    
Maximum Humidity 58    
Minimum Humidity 43    
Precipitation  
Precipitation 0.00 in - - ()
Sea Level Pressure  
Sea Level Pressure 30.07 in    
Wind  
Wind Speed 12 mph (NE)    
Max Wind Speed 15 mph    
Max Gust Speed 23 mph    
Visibility 8 miles    
Events      
Averages and records for this station are not official NWS values.
T = Trace of Precipitation, MM = Missing Value Source: NWS Daily Summary

Daily Weather History Graph

Daily Weather History Graph

Search for Another Location

Airport or City:

Trip Planner

Search our weather history database for the weather conditions in past years. The results will help you decide how hot, cold, wet, or windy it might be!

Date:

Astronomy

Jan. 07, 2014 Rise Set
Actual Time 7:10 AM HST 6:04 PM HST
Civil Twilight 6:46 AM HST 6:28 PM HST
Nautical Twilight 6:19 AM HST 6:56 PM HST
Astronomical Twilight 5:51 AM HST 7:23 PM HST
Moon 12:01 PM HST (1/7) No Moon Set
Length of Visible Light 11h 42m
Length of Day
10h 53m
Waxing Crescent, 47% of the Moon is Illuminated
Jan 7
Waxing Crescent
Jan 7
First Quarter
Jan 15
Full
Jan 23
Last Quarter
Jan 30
New

Hourly Weather History & Observations

Time (HST) Temp. Dew Point Humidity Pressure Visibility Wind Dir Wind Speed Gust Speed Precip Events Conditions
12:57 AM 70.5 °F 52.0 °F 52% 30.05 in 9.0 mi NE 10.4 mph 20.7 mph N/A   Scattered Clouds
1:57 AM 70.5 °F 52.0 °F 52% 30.05 in 10.0 mi NE 12.7 mph - N/A   Clear
2:57 AM 70.5 °F 52.0 °F 52% 30.04 in 9.0 mi NE 9.2 mph - N/A   Clear
3:57 AM 70.5 °F 52.0 °F 52% 30.03 in 8.0 mi NNE 11.5 mph - N/A   Mostly Cloudy
4:57 AM 70.5 °F 55.0 °F 58% 30.04 in 9.0 mi NNE 13.8 mph 21.9 mph N/A   Clear
5:57 AM 70.5 °F 52.0 °F 52% 30.06 in 9.0 mi NNE 15.0 mph 19.6 mph N/A   Mostly Cloudy
6:57 AM 71.6 °F 54.0 °F 54% 30.09 in 9.0 mi NNE 15.0 mph 20.7 mph N/A   Scattered Clouds
7:57 AM 71.6 °F 53.1 °F 52% 30.10 in 7.0 mi NE 13.8 mph 21.9 mph N/A   Clear
8:57 AM 71.6 °F 54.0 °F 54% 30.11 in 8.0 mi NE 11.5 mph 18.4 mph N/A   Clear
9:57 AM 73.4 °F 54.0 °F 50% 30.12 in 8.0 mi NE 8.1 mph - N/A   Mostly Cloudy
10:57 AM 73.4 °F 55.0 °F 52% 30.11 in 8.0 mi NE 10.4 mph - N/A   Scattered Clouds
11:57 AM 75.2 °F 55.9 °F 51% 30.09 in 8.0 mi NNE 13.8 mph - N/A   Partly Cloudy
12:57 PM 77.0 °F 57.0 °F 50% 30.05 in 8.0 mi NE 11.5 mph 19.6 mph N/A   Scattered Clouds
1:57 PM 78.8 °F 57.0 °F 47% 30.02 in 9.0 mi NNE 11.5 mph 17.3 mph N/A   Partly Cloudy
2:57 PM 77.0 °F 55.9 °F 48% 30.02 in 8.0 mi NNE 12.7 mph - N/A   Scattered Clouds
3:57 PM 77.0 °F 55.9 °F 48% 30.03 in 7.0 mi NE 11.5 mph - N/A   Partly Cloudy
4:57 PM 73.4 °F 55.9 °F 54% 30.04 in 7.0 mi NNE 12.7 mph 21.9 mph N/A   Scattered Clouds
5:57 PM 73.4 °F 55.9 °F 54% 30.06 in 8.0 mi NE 11.5 mph 23.0 mph N/A   Partly Cloudy
6:57 PM 73.4 °F 54.0 °F 50% 30.07 in 9.0 mi NE 12.7 mph 20.7 mph N/A   Partly Cloudy
7:57 PM 77.0 °F 53.1 °F 43% 30.09 in 7.0 mi NE 10.4 mph 18.4 mph N/A   Scattered Clouds
8:57 PM 75.2 °F 53.1 °F 46% 30.09 in 8.0 mi NE 12.7 mph - N/A   Scattered Clouds
9:57 PM 75.2 °F 54.0 °F 47% 30.10 in 8.0 mi NE 11.5 mph 19.6 mph N/A   Scattered Clouds
10:57 PM 73.4 °F 54.0 °F 50% 30.09 in 8.0 mi NE 11.5 mph 18.4 mph N/A   Partly Cloudy
11:57 PM 71.6 °F 54.0 °F 54% 30.07 in 8.0 mi NE 11.5 mph 17.3 mph 0.00 in   Mostly Cloudy